Simultaneous Nadir Overpasses (SNOs) Predictions

Prediction of SNOs between NPP and TERRA Satellite Orbit:

Table of predicted SNOs for the next 14.0 days since TLE Epoch: 10/14/2013
Index Date (NPP) Time (NPP) Lat,Lon (NPP) SZA (NPP ) Date (TERRA) Time (TERRA) Lat,Lon (TERRA) SZA (TERRA ) Distance(km) Time Diff (sec)
1 10/14/2013 17:32:53 -68.91, 94.83 102.80 10/14/2013 17:34:04 -68.78, 95.62 102.92 35.04 71
2 10/14/2013 18:23:30 68.41, -97.19 76.72 10/14/2013 18:23:36 68.39, -97.22 76.70 2.27 6
3 10/14/2013 19:14:11 -68.28, 70.30 103.41 10/14/2013 19:13:06 -68.29, 70.29 103.40 1.08 65
4 10/17/2013 09:49:42 -68.50,-148.84 102.23 10/17/2013 09:50:36 -68.48,-148.87 102.25 2.82 54
5 10/17/2013 10:40:26 68.37, 18.63 77.67 10/17/2013 10:40:03 68.36, 18.63 77.65 1.76 23
6 10/17/2013 11:30:54 -67.53,-173.00 103.15 10/17/2013 11:29:45 -67.58,-174.64 103.13 69.69 69
7 10/20/2013 01:16:12 69.40, 158.37 79.63 10/20/2013 01:17:19 69.33, 160.47 79.59 82.51 67
8 10/20/2013 02:06:38 -68.46, -33.02 101.29 10/20/2013 02:07:03 -68.45, -33.01 101.30 0.59 25
9 10/20/2013 02:57:22 68.34, 134.45 78.60 10/20/2013 02:56:30 68.33, 134.49 78.59 1.56 52
10 10/22/2013 17:32:52 68.52, -84.64 79.71 10/22/2013 17:34:00 68.54, -84.65 79.73 2.44 68
11 10/22/2013 18:23:33 -68.42, 82.81 100.38 10/22/2013 18:23:29 -68.44, 82.86 100.36 3.10 4
12 10/22/2013 19:14:12 68.04,-109.39 79.26 10/22/2013 19:13:00 68.09,-109.91 79.30 22.51 72
13 10/25/2013 09:49:47 68.49, 31.17
